STARLINK-34518

Last updated on Thu Jul 03 2025 00:02:07 GMT+0000 (Coordinated Universal Time)

1 64480U 25133J 25183.58335648 -.01092212 00000+0 -54227-2 0 9997 2 64480 53.1561 210.8168 0000837 61.6369 292.7183 15.83967253 2564
UTC large
Height (km)
Speed (km/s)
/
Latitude / Longitude
Inclination (degrees)
Orbital Period (minutes)
Azimuth
Elevation
Range (km)
Doppler Factor

Next 0 passes for location: London (51.5072 / 0.1276)

Sorry there are no passes over London.